Flag for U.S.A. Weather past 2 weeks in Bloomington, Illinois, U.S.A.

Now
54 °F

Clear.


Feels Like: 51 °F
Forecast: 49 / 76 °F
Wind: 12 mph from East

Location: Bloomington / Normal

Current Time: Sep 30, 2014 at 11:56:13 PM

Latest Report: Sep 30, 2014 at 9:56 PM


Visibility: 10 mi

Pressure: 30.00 "Hg

Humidity: 83%

Dew point: 49 °F

Location of BloomingtonLocation

Historic Weather in Bloomington — Graph

°F

Bloomington temperature yesterday

Maximum temperature yesterday: 83 °F (at 2:56 PM)
Minimum temperature yesterday: 58 °F (at 5:56 AM)
Average temperature yesterday: 72 °F

Past Weeks' High & Low Weather Summary

 TemperatureHumidityPressure
High91 °F (Sep 20, 3:56 PM)100% (Sep 19, 11:56 AM)30.36 "Hg (Sep 19, 11:56 AM)
Low32 °F (Sep 19, 11:56 AM)30% (Sep 22, 2:56 PM)29.79 "Hg (Sep 20, 11:56 PM)
Average62 °F69%30.13 "Hg
* Reported Sep 15 9:56 PM — Sep 30 9:56 PM, Bloomington, Weather by CustomWeather, © 2014

Note: Actual official high and low records may vary slightly from our data, if they occured in-between our weather recording intervals... More about our weather records

Advertising

Bloomington weather history for previous 24 hours

 ConditionsComfort  
Time TempWeatherWind HumidityBarometerVisibility
9:56 PM
Sep 30
54 °FClear.12 mph83%30.00 "Hg10 mi
8:56 PM56 °FClear.10 mph77%30.00 "Hg10 mi
7:56 PM58 °FClear.9 mph75%29.98 "Hg10 mi
6:56 PM62 °FSunny.9 mph67%29.96 "Hg10 mi
4:56 PM70 °FSunny.9 mph59%29.94 "Hg10 mi
3:56 PM70 °FSunny.6 mph59%29.94 "Hg10 mi
2:56 PM70 °FSunny.8 mph57%29.96 "Hg10 mi
1:56 PM70 °FSunny.8 mph59%29.97 "Hg10 mi
12:56 PM67 °FSunny.9 mph61%29.99 "Hg10 mi
11:56 AM65 °FSunny.13 mph63%30.01 "Hg10 mi
10:56 AM61 °FScattered clouds.9 mph72%30.02 "Hg10 mi
9:56 AM56 °FOvercast.13 mph83%30.03 "Hg10 mi
8:56 AM55 °FLow clouds.14 mph90%30.02 "Hg10 mi
7:56 AM55 °FLow clouds.12 mph90%30.01 "Hg10 mi
6:56 AM55 °FLow clouds.13 mph94%30.00 "Hg10 mi
5:56 AM56 °FLow clouds.16 mph93%29.99 "Hg10 mi
Weather by CustomWeather, © 2014

See weather overviewHow to use our weather pages